Location: Kitchener
(43.4500°N, 80.5000°W)
Time: 15:42:46
(UTC-04:00)

Cosmos 1939 Rocket - Visible Passes

Search period start: 23 August 2017 00:00
Search period end: 02 September 2017 00:00
Orbit: 533 x 586 km, 97.5° (Epoch: 22 August)

Date Brightness Start Highest point End Pass type
(mag) Time Alt. Az. Time Alt. Az. Time Alt. Az.
23 Aug 4.0 21:51:40 10° S 21:55:24 41° W 21:59:08 10° NNW visible
24 Aug 3.9 21:50:27 10° S 21:54:09 42° W 21:57:53 10° NNW visible
25 Aug 3.9 21:49:19 11° S 21:52:53 43° W 21:56:38 10° NNW visible
26 Aug 3.8 21:48:10 12° S 21:51:37 45° W 21:55:23 10° NNW visible
27 Aug 3.7 21:47:02 13° S 21:50:21 46° W 21:54:08 10° NNW visible
28 Aug 3.6 21:45:53 14° S 21:49:05 48° W 21:52:51 10° NNW visible
29 Aug 3.6 21:44:44 15° S 21:47:49 49° W 21:51:36 10° NNW visible
30 Aug 3.5 21:43:36 16° S 21:46:32 51° W 21:50:20 10° NNW visible
31 Aug 3.4 21:42:27 17° S 21:45:15 53° W 21:49:04 10° NNW visible
01 Sep 3.4 21:41:18 18° S 21:43:59 55° W 21:47:48 10° NNW visible
